Location: Casilda
(33.0440°S, 61.1680°W)
Time: 07:49:02
(UTC-03:00)

ISS - Pass Details

Date: 24 September 2021
Orbit: 417 x 422 km, 51.6° (Epoch: 28 September)

Event Time Altitude Azimuth Distance (km) Brightness Sun altitude
Exits shadow 05:49:18 23° 253° (WSW) 971 -2.4 -13.7°
Maximum altitude 05:50:28 28° 217° (SW) 835 -2.5 -13.5°
Drops below altitude 10° 05:53:31 10° 155° (SSE) 1,535 -0.4 -12.8°
Sets 05:55:50 0° 143° (SE) 2,406 0.8 -12.4°
